"Timestamp","TZ","WindDir_Mean (deg)","WindSpd_Mean (km/h)","WindSpd_Min (km/h)","WindSpd_Max (km/h)","Temp_Mean (deg)","RH_Mean (%)","MSLP_Mean (hPa)","Rain_Acc (mm)","Rain_Intensity (mm/h)","Hail_Acc (hits/cm2)","Hail_Intensity (hits/cm2hr)","Solar_Mean (W/m2)"
2022/10/12 00:00:00.004,n,152,1.44,0.36,4.68,16.9,55.4,1021.12,0,0,0,0,0.024376
2022/10/12 00:01:00.001,n,138,1.44,1.08,3.24,16.9,55.7,1021.02,0,0,0,0,0.027008
2022/10/12 00:02:00.002,n,240,2.16,1.44,5.04,16.9,55.6,1021.02,0,0,0,0,0.028725
2022/10/12 00:03:00.001,n,206,3.24,1.08,5.04,16.9,55.7,1021.12,0,0,0,0,0.027885
2022/10/12 00:04:00.001,n,193,2.16,1.8,2.52,16.9,55.7,1021.12,0,0,0,0,0.030518
2022/10/12 00:05:00.001,n,310,1.08,0,4.68,16.9,55.9,1021.02,0,0,0,0,0.030518
2022/10/12 00:06:00.002,n,84,1.8,1.44,2.16,16.9,55.7,1021.02,0,0,0,0,0.028725
2022/10/12 00:07:00.004,n,213,2.52,1.08,4.32,16.8,55.9,1021.12,0,0,0,0,0.030518
2022/10/12 00:08:00.008,n,270,3.96,3.6,3.96,16.9,56.1,1021.12,0,0,0,0,0.028725
2022/10/12 00:09:00.014,n,155,2.88,1.08,5.4,16.9,56,1021.12,0,0,0,0,0.027885
2022/10/12 00:10:00.002,n,287,4.68,2.88,5.76,16.9,56.1,1021.02,0,0,0,0,0.028725
2022/10/12 00:11:00.001,n,242,2.52,1.8,3.6,16.9,55.7,1021.02,0,0,0,0,0.027008
2022/10/12 00:12:00.002,n,309,0.36,0.36,0.72,16.8,56.4,1021.02,0,0,0,0,0.030518
2022/10/12 00:13:00.001,n,272,1.8,1.44,2.52,16.8,56.3,1021.02,0,0,0,0,0.02964
2022/10/12 00:14:00.005,n,159,1.8,0.72,4.68,16.8,55.8,1021.02,0,0,0,0,0.02964
2022/10/12 00:15:00.006,n,156,1.8,0.36,5.04,16.8,55.9,1021.02,0,0,0,0,0.030518
2022/10/12 00:16:00.009,n,214,2.88,1.44,3.96,16.8,55.6,1021.02,0,0,0,0,0.030518
2022/10/12 00:17:00.011,n,110,1.8,0.72,3.24,16.8,55.9,1021.02,0,0,0,0,0.02964
2022/10/12 00:18:00.015,n,280,1.44,1.08,2.16,16.8,55.9,1021.02,0,0,0,0,0.030518
2022/10/12 00:19:00.003,n,164,3.96,0.72,6.48,16.9,55.9,1021.02,0,0,0,0,0.030518
2022/10/12 00:20:00.001,n,93,2.16,0.72,6.84,16.9,55.6,1021.02,0,0,0,0,0.033112
2022/10/12 00:21:00.002,n,189,1.8,0.36,4.32,16.9,56.8,1020.92,0,0,0,0,0.030518
2022/10/12 00:22:00.002,n,313,0.36,0,1.08,16.9,56.1,1020.92,0,0,0,0,0.032234
2022/10/12 00:23:00.002,n,300,2.16,1.08,3.96,16.9,56.8,1020.92,0,0,0,0,0.031357
2022/10/12 00:24:00.004,n,61,2.88,0.72,5.76,16.9,55.9,1020.92,0,0,0,0,0.033951
2022/10/12 00:25:00.008,n,285,2.16,1.08,3.24,16.9,56.1,1020.92,0,0,0,0,0.032234
2022/10/12 00:26:00.010,n,296,0.72,0.36,1.08,16.9,56.2,1020.92,0,0,0,0,0.028725
2022/10/12 00:27:00.015,n,224,3.24,2.52,3.96,16.9,56.7,1020.82,0,0,0,0,0.033112
2022/10/12 00:28:00.002,n,208,2.52,0.36,5.4,16.9,56,1020.82,0,0,0,0,0.033112
2022/10/12 00:29:00.001,n,260,1.08,0.36,5.04,16.9,55.9,1020.82,0,0,0,0,0.032234
2022/10/12 00:30:00.001,n,284,2.52,1.8,2.88,16.9,55.8,1020.82,0,0,0,0,0.033951
2022/10/12 00:31:00.001,n,255,2.88,2.52,3.24,16.8,55.8,1020.72,0,0,0,0,0.033112
2022/10/12 00:32:00.001,n,270,1.8,1.44,2.52,16.8,56.2,1020.72,0,0,0,0,0.036583
2022/10/12 00:33:00.006,n,277,5.4,5.4,5.76,16.8,56,1020.72,0,0,0,0,0.033951
2022/10/12 00:34:00.006,n,216,1.08,0.72,4.68,16.8,56,1020.72,0,0,0,0,0.033112
2022/10/12 00:35:00.010,n,262,3.24,3.24,3.6,16.8,56.1,1020.72,0,0,0,0,0.033112
2022/10/12 00:36:00.011,n,185,3.24,1.8,6.12,16.700002,56.1,1020.72,0,0,0,0,0.035706
2022/10/12 00:37:00.002,n,276,1.44,1.44,1.8,16.700002,56.6,1020.72,0,0,0,0,0.036583
2022/10/12 00:38:00.002,n,186,2.52,1.08,4.68,16.700002,56.2,1020.72,0,0,0,0,0.032234
2022/10/12 00:39:00.004,n,268,1.8,1.44,2.52,16.700002,56.6,1020.72,0,0,0,0,0.033951
2022/10/12 00:40:00.008,n,178,2.88,2.16,3.96,16.700002,56.3,1020.72,0,0,0,0,0.035706
2022/10/12 00:41:00.002,n,194,2.88,2.52,3.24,16.700002,56.3,1020.72,0,0,0,0,0.035706
2022/10/12 00:42:00.001,n,291,2.16,2.16,2.52,16.700002,56.5,1020.72,0,0,0,0,0.036583
2022/10/12 00:43:00.002,n,299,3.24,2.16,3.6,16.700002,56.6,1020.72,0,0,0,0,0.039215
2022/10/12 00:44:00.003,n,157,1.44,0.72,5.76,16.700002,56.9,1020.72,0,0,0,0,0.034866
2022/10/12 00:45:00.002,n,235,1.44,0.36,5.76,16.700002,56.8,1020.72,0,0,0,0,0.0383
2022/10/12 00:46:00.001,n,289,2.88,2.16,3.6,16.8,57,1020.72,0,0,0,0,0.0383
2022/10/12 00:47:00.001,n,220,0.72,0.36,1.44,16.9,57.6,1020.72,0,0,0,0,0.035706
2022/10/12 00:48:00.002,n,194,2.16,1.44,4.32,16.9,56.4,1020.62,0,0,0,0,0.03746
2022/10/12 00:49:00.001,n,256,3.96,0.36,4.68,16.9,56.3,1020.72,0,0,0,0,0.0383
2022/10/12 00:50:00.004,n,291,3.96,3.6,4.32,16.9,56.4,1020.62,0,0,0,0,0.039215
2022/10/12 00:51:00.008,n,203,3.24,1.44,3.96,16.9,56.5,1020.62,0,0,0,0,0.034866
2022/10/12 00:52:00.009,n,265,3.24,2.88,3.96,16.8,56.6,1020.62,0,0,0,0,0.033112
2022/10/12 00:53:00.013,n,258,3.24,1.08,3.6,16.8,57.2,1020.62,0,0,0,0,0.03746
2022/10/12 00:54:00.016,n,247,1.8,1.44,2.88,16.8,56.9,1020.62,0,0,0,0,0.03746
2022/10/12 00:55:00.002,n,255,2.52,1.8,2.88,16.8,57,1020.62,0,0,0,0,0.036583
2022/10/12 00:56:00.002,n,255,2.88,2.52,2.88,16.8,57.2,1020.52,0,0,0,0,0.034866
2022/10/12 00:57:00.001,n,230,1.08,0.36,2.16,16.8,57.4,1020.52,0,0,0,0,0.034866
2022/10/12 00:58:00.001,n,267,4.68,3.96,5.04,16.8,57.4,1020.52,0,0,0,0,0.035706
2022/10/12 00:59:00.003,n,208,2.88,1.8,5.4,16.8,57.4,1020.42,0,0,0,0,0.035706
2022/10/12 01:00:00.001,n,218,2.88,2.52,3.24,16.8,57.4,1020.42,0,0,0,0,0.035706
2022/10/12 01:01:00.002,n,243,4.32,1.44,5.76,16.700002,57.6,1020.42,0,0,0,0,0.040092
2022/10/12 01:02:00.008,n,260,1.8,0.72,4.32,16.700002,57.9,1020.42,0,0,0,0,0.036583
2022/10/12 01:03:00.009,n,282,5.4,4.68,6.84,16.700002,57.7,1020.42,0,0,0,0,0.035706
2022/10/12 01:04:00.002,n,276,3.96,3.6,4.68,16.700002,57.5,1020.42,0,0,0,0,0.036583
2022/10/12 01:05:00.001,n,187,2.88,0.72,4.32,16.700002,57.5,1020.42,0,0,0,0,0.035706
2022/10/12 01:06:00.001,n,277,2.88,2.52,3.24,16.700002,57.6,1020.42,0,0,0,0,0.036583
2022/10/12 01:07:00.003,n,278,4.32,3.24,4.68,16.700002,57.9,1020.42,0,0,0,0,0.03746
2022/10/12 01:08:00.006,n,266,3.24,2.88,3.6,16.700002,57.8,1020.42,0,0,0,0,0.03746
2022/10/12 01:09:00.008,n,255,4.32,2.16,5.04,16.700002,57.7,1020.42,0,0,0,0,0.039215
2022/10/12 01:10:00.012,n,187,1.8,0.72,3.96,16.6,57.8,1020.42,0,0,0,0,0.03746
2022/10/12 01:11:00.014,n,253,2.52,2.16,2.88,16.6,58.4,1020.42,0,0,0,0,0.040932
2022/10/12 01:12:00.002,n,282,5.04,4.68,5.4,16.6,58.1,1020.32,0,0,0,0,0.039215
2022/10/12 01:13:00.001,n,233,3.24,1.44,4.32,16.6,58.1,1020.32,0,0,0,0,0.03746
2022/10/12 01:14:00.001,n,264,8.64,7.92,9,16.6,58.1,1020.32,0,0,0,0,0.0383
2022/10/12 01:15:00.001,n,257,5.04,2.88,5.76,16.6,58.2,1020.32,0,0,0,0,0.039215
2022/10/12 01:16:00.001,n,304,3.24,2.16,5.04,16.6,59,1020.32,0,0,0,0,0.0383
2022/10/12 01:17:00.001,n,250,2.88,2.52,3.24,16.6,58.5,1020.32,0,0,0,0,0.03746
2022/10/12 01:18:00.004,n,261,3.96,3.6,4.68,16.6,58.7,1020.32,0,0,0,0,0.036583
2022/10/12 01:19:00.005,n,342,2.52,0.36,4.68,16.6,58.7,1020.32,0,0,0,0,0.035706
2022/10/12 01:20:00.007,n,243,3.24,0.72,4.32,16.6,58.8,1020.32,0,0,0,0,0.03746
2022/10/12 01:21:00.013,n,230,3.6,1.8,4.32,16.6,58.9,1020.32,0,0,0,0,0.036583
2022/10/12 01:22:00.003,n,280,4.68,4.32,5.4,16.6,59.1,1020.32,0,0,0,0,0.040092
2022/10/12 01:23:00.002,n,247,3.96,1.08,5.04,16.5,59,1020.32,0,0,0,0,0.042686
2022/10/12 01:24:00.002,n,233,0.72,0,1.08,16.5,59.2,1020.32,0,0,0,0,0.036583
2022/10/12 01:25:00.002,n,210,3.6,2.88,4.32,16.5,59.3,1020.32,0,0,0,0,0.040932
2022/10/12 01:26:00.002,n,279,5.4,4.68,5.4,16.5,59.4,1020.32,0,0,0,0,0.036583
2022/10/12 01:27:00.003,n,263,3.24,2.88,3.6,16.5,59.8,1020.32,0,0,0,0,0.036583
2022/10/12 01:28:00.007,n,275,5.04,4.32,5.76,16.5,59.5,1020.32,0,0,0,0,0.03746
2022/10/12 01:29:00.003,n,215,2.52,2.16,2.88,16.5,59.5,1020.32,0,0,0,0,0.0383
2022/10/12 01:30:00.007,n,245,5.76,5.04,6.12,16.5,59.5,1020.32,0,0,0,0,0.039215
2022/10/12 01:31:00.001,n,263,3.6,3.24,3.96,16.4,59.6,1020.32,0,0,0,0,0.039215
2022/10/12 01:32:00.002,n,282,2.52,1.08,4.32,16.4,59.9,1020.22,0,0,0,0,0.036583
2022/10/12 01:33:00.001,n,210,2.52,1.08,3.6,16.4,60,1020.22,0,0,0,0,0.03746
2022/10/12 01:34:00.003,n,266,3.96,3.6,3.96,16.4,59.8,1020.22,0,0,0,0,0.036583
2022/10/12 01:35:00.003,n,273,4.32,3.24,5.04,16.4,59.8,1020.12,0,0,0,0,0.040092
2022/10/12 01:36:00.006,n,285,4.68,4.32,5.4,16.4,59.8,1020.12,0,0,0,0,0.035706
2022/10/12 01:37:00.011,n,269,4.68,4.32,5.04,16.4,59.9,1020.12,0,0,0,0,0.036583
2022/10/12 01:38:00.015,n,225,3.24,0.36,4.68,16.4,60,1020.12,0,0,0,0,0.031357
2022/10/12 01:39:00.002,n,278,5.76,5.04,6.84,16.4,60,1020.12,0,0,0,0,0.036583
2022/10/12 01:40:00.002,n,260,5.76,5.4,6.84,16.4,59.9,1020.12,0,0,0,0,0.03746
2022/10/12 01:41:00.001,n,272,5.76,5.4,6.12,16.4,59.9,1020.02,0,0,0,0,0.033951
2022/10/12 01:42:00.001,n,259,5.04,2.52,6.84,16.4,60,1020.02,0,0,0,0,0.034866
2022/10/12 01:43:00.004,n,256,5.76,2.52,8.28,16.4,60,1020.02,0,0,0,0,0.034866
2022/10/12 01:44:00.007,n,264,6.12,5.04,7.2,16.4,59.9,1020.02,0,0,0,0,0.035706
2022/10/12 01:45:00.010,n,172,3.24,1.44,4.68,16.3,60,1020.02,0,0,0,0,0.033112
2022/10/12 01:46:00.014,n,252,3.6,1.8,4.32,16.3,60.5,1020.02,0,0,0,0,0.033112
2022/10/12 01:47:00.002,n,227,2.52,1.44,2.88,16.4,60.3,1020.02,0,0,0,0,0.02964
2022/10/12 01:48:00.004,n,303,7.2,6.12,7.92,16.4,60.6,1020.02,0,0,0,0,0.032234
2022/10/12 01:49:00.002,n,201,2.88,2.16,3.6,16.4,60.3,1020.02,0,0,0,0,0.02964
2022/10/12 01:50:00.001,n,270,2.16,1.44,2.52,16.3,60.2,1020.02,0,0,0,0,0.036583
2022/10/12 01:51:00.002,n,275,3.24,2.88,3.6,16.3,60.2,1020.02,0,0,0,0,0.032234
2022/10/12 01:52:00.001,n,291,1.8,1.08,2.16,16.3,61.6,1020.02,0,0,0,0,0.02964
2022/10/12 01:53:00.002,n,180,2.52,0.72,5.4,16.4,60.7,1020.02,0,0,0,0,0.034866
2022/10/12 01:54:00.002,n,36,2.16,0.36,4.32,16.4,60.5,1020.02,0,0,0,0,0.031357
2022/10/12 01:55:00.003,n,194,5.76,3.24,8.64,16.4,60.9,1020.02,0,0,0,0,0.030518
2022/10/12 01:56:00.005,n,141,2.16,0.72,5.4,16.4,60.5,1020.02,0,0,0,0,0.031357
2022/10/12 01:57:00.007,n,47,1.44,0.36,5.4,16.4,60.6,1020.02,0,0,0,0,0.027885
2022/10/12 01:58:00.002,n,177,2.52,0.36,5.04,16.4,60.7,1020.02,0,0,0,0,0.031357
2022/10/12 01:59:00.002,n,135,4.32,2.52,8.28,16.4,60.7,1020.02,0,0,0,0,0.02964
2022/10/12 02:00:00.002,n,165,4.32,2.52,7.56,16.4,60.7,1020.02,0,0,0,0,0.034866
2022/10/12 02:01:00.001,n,190,6.84,5.4,10.440002,16.5,60.6,1020.02,0,0,0,0,0.030518
2022/10/12 02:02:00.005,n,159,3.24,1.8,7.56,16.5,60.6,1020.02,0,0,0,0,0.031357
2022/10/12 02:03:00.009,n,250,4.32,3.6,5.04,16.4,60.5,1020.02,0,0,0,0,0.027885
2022/10/12 02:04:00.002,n,92,1.44,0.72,2.52,16.4,60.3,1019.92,0,0,0,0,0.02964
2022/10/12 02:05:00.012,n,180,5.04,3.24,7.92,16.4,60.5,1019.92,0,0,0,0,0.027008
2022/10/12 02:06:00.015,n,134,2.52,1.8,3.96,16.5,60.3,1019.92,0,0,0,0,0.024376
2022/10/12 02:07:00.002,n,215,5.04,4.68,5.76,16.5,60.4,1019.92,0,0,0,0,0.024376
2022/10/12 02:08:00.002,n,179,10.8,6.12,15.12,16.5,59.9,1019.92,0,0,0,0,0.027885
2022/10/12 02:09:00.002,n,178,3.6,2.16,5.04,16.5,60.1,1019.92,0,0,0,0,0.027885
2022/10/12 02:10:00.001,n,182,11.52,9,15.48,16.5,60,1019.92,0,0,0,0,0.026131
2022/10/12 02:11:00.002,n,170,6.84,5.4,11.16,16.5,60,1019.92,0,0,0,0,0.027885
2022/10/12 02:12:00.006,n,161,3.96,3.24,4.68,16.5,60,1019.92,0,0,0,0,0.026131
2022/10/12 02:13:00.006,n,204,2.88,1.8,3.6,16.5,60.3,1019.92,0,0,0,0,0.030518
2022/10/12 02:14:00.009,n,153,3.6,1.44,5.4,16.5,60.2,1019.82,0,0,0,0,0.02964
2022/10/12 02:15:00.011,n,171,11.16,7.56,14.4,16.5,59.7,1019.82,0,0,0,0,0.028725
2022/10/12 02:16:00.002,n,171,6.84,1.08,11.52,16.5,59.9,1019.82,0,0,0,0,0.024376
2022/10/12 02:17:00.001,n,208,5.4,4.68,5.76,16.5,59.9,1019.82,0,0,0,0,0.025291
2022/10/12 02:18:00.002,n,168,14.4,10.440002,16.2,16.5,59.9,1019.92,0,0,0,0,0.025291
2022/10/12 02:19:00.001,n,177,7.92,7.56,8.64,16.5,59.8,1019.92,0,0,0,0,0.025291
2022/10/12 02:20:00.001,n,171,9.36,4.68,11.52,16.5,59.8,1019.92,0,0,0,0,0.028725
2022/10/12 02:21:00.003,n,163,5.04,1.44,11.52,16.5,60,1019.92,0,0,0,0,0.026131
2022/10/12 02:22:00.006,n,188,9,7.2,11.52,16.5,60,1019.82,0,0,0,0,0.024376
2022/10/12 02:23:00.009,n,174,2.88,1.8,5.76,16.4,60.1,1019.82,0,0,0,0,0.025291
2022/10/12 02:24:00.011,n,168,15.48,11.16,17.64,16.4,60,1019.82,0,0,0,0,0.027008
2022/10/12 02:25:00.001,n,160,7.2,4.32,9,16.4,60.4,1019.82,0,0,0,0,0.027885
2022/10/12 02:26:00.002,n,149,5.4,3.24,9,16.4,60.2,1019.82,0,0,0,0,0.027885
2022/10/12 02:27:00.006,n,185,6.48,3.96,11.16,16.4,60.4,1019.82,0,0,0,0,0.027885
2022/10/12 02:28:00.008,n,171,11.16,9,12.6,16.4,60.4,1019.82,0,0,0,0,0.024376
2022/10/12 02:29:00.001,n,180,5.76,3.24,9,16.3,60.5,1019.82,0,0,0,0,0.025291
2022/10/12 02:30:00.001,n,197,9.72,7.2,11.52,16.3,60.6,1019.82,0,0,0,0,0.024376
2022/10/12 02:31:00.004,n,199,12.24,9.72,14.4,16.3,60.5,1019.82,0,0,0,0,0.023537
2022/10/12 02:32:00.006,n,184,8.64,5.04,13.32,16.3,60.7,1019.82,0,0,0,0,0.024376
2022/10/12 02:33:00.009,n,194,6.48,4.68,10.8,16.3,60.7,1019.82,0,0,0,0,0.021782
2022/10/12 02:34:00.001,n,162,7.2,2.88,12.24,16.3,60.7,1019.82,0,0,0,0,0.021782
2022/10/12 02:35:00.001,n,174,14.4,11.16,18.359998,16.3,60.8,1019.82,0,0,0,0,0.021782
2022/10/12 02:36:00.002,n,129,3.96,1.08,6.12,16.3,61,1019.82,0,0,0,0,0.020943
2022/10/12 02:37:00.005,n,148,1.44,0.72,2.88,16.3,61.1,1019.82,0,0,0,0,0.021782
2022/10/12 02:38:00.001,n,164,4.68,2.88,7.92,16.3,61.1,1019.82,0,0,0,0,0.01915
2022/10/12 02:39:00.001,n,172,7.56,4.32,9,16.3,61.1,1019.72,0,0,0,0,0.01915
2022/10/12 02:40:00.003,n,159,7.2,6.48,7.92,16.3,61.1,1019.72,0,0,0,0,0.020027
2022/10/12 02:41:00.006,n,194,6.84,5.4,10.08,16.3,61.1,1019.72,0,0,0,0,0.020943
2022/10/12 02:42:00.009,n,188,7.92,5.04,10.440002,16.200002,61.1,1019.72,0,0,0,0,0.021782
2022/10/12 02:43:00.001,n,284,1.44,0.36,4.68,16.200002,61.2,1019.72,0,0,0,0,0.020943
2022/10/12 02:44:00.001,n,196,8.28,6.12,10.8,16.200002,61.2,1019.72,0,0,0,0,0.018311
2022/10/12 02:45:00.001,n,185,6.48,4.32,11.16,16.200002,61.2,1019.62,0,0,0,0,0.018311
2022/10/12 02:46:00.004,n,172,7.56,5.4,10.08,16.200002,61.3,1019.62,0,0,0,0,0.018311
2022/10/12 02:47:00.008,n,184,6.48,4.32,8.64,16.200002,61.3,1019.62,0,0,0,0,0.020027
2022/10/12 02:48:00.001,n,174,9.36,6.12,10.8,16.200002,61.4,1019.62,0,0,0,0,0.020943
2022/10/12 02:49:00.002,n,195,7.92,5.76,10.440002,16.200002,61.5,1019.62,0,0,0,0,0.020027
2022/10/12 02:50:00.005,n,176,1.08,0.36,1.8,16.200002,61.3,1019.62,0,0,0,0,0.020943
2022/10/12 02:51:00.007,n,155,7.2,6.12,12.24,16.200002,61.6,1019.62,0,0,0,0,0.020943
2022/10/12 02:52:00.001,n,185,5.76,1.44,9.72,16.200002,61.6,1019.62,0,0,0,0,0.020943
2022/10/12 02:53:00.001,n,48,1.08,0.36,5.04,16.200002,61.7,1019.62,0,0,0,0,0.017433
2022/10/12 02:54:00.002,n,186,7.2,5.76,10.08,16.200002,61.6,1019.62,0,0,0,0,0.01915
2022/10/12 02:55:00.002,n,185,9,6.12,11.52,16.200002,61.8,1019.62,0,0,0,0,0.018311
2022/10/12 02:56:00.002,n,198,6.84,5.4,8.28,16.200002,61.8,1019.62,0,0,0,0,0.023499
2022/10/12 02:57:00.004,n,171,10.08,7.2,13.32,16.200002,61.9,1019.52,0,0,0,0,0.031319
2022/10/12 02:58:00.008,n,186,9.36,5.04,12.24,16.200002,61.9,1019.52,0,0,0,0,0.02697
2022/10/12 02:59:00.010,n,168,11.52,9.72,15.84,16.200002,62,1019.52,0,0,0,0,0.031319
2022/10/12 03:00:00.012,n,200,6.48,5.04,7.2,16.1,62.2,1019.52,0,0,0,0,0.027847
2022/10/12 03:01:00.002,n,209,9,6.84,10.8,16.1,62.2,1019.52,0,0,0,0,0.031319
2022/10/12 03:02:00.001,n,199,11.16,10.8,11.88,16.1,62.2,1019.52,0,0,0,0,0.027847
2022/10/12 03:03:00.001,n,202,7.56,5.76,11.52,16.1,62.5,1019.52,0,0,0,0,0.031319
2022/10/12 03:04:00.001,n,169,12.6,8.28,15.48,16.1,62.5,1019.52,0,0,0,0,0.030479
2022/10/12 03:05:00.002,n,133,7.56,5.4,10.440002,16.1,62.6,1019.42,0,0,0,0,0.02697
2022/10/12 03:06:00.004,n,181,10.08,7.2,15.84,16.1,62.6,1019.52,0,0,0,0,0.025253
2022/10/12 03:07:00.007,n,219,8.28,6.48,9.36,16,62.7,1019.52,0,0,0,0,0.027847
2022/10/12 03:08:00.010,n,198,2.88,1.08,5.76,16,62.8,1019.52,0,0,0,0,0.02697
2022/10/12 03:09:00.011,n,183,8.64,3.6,12.96,16,62.9,1019.52,0,0,0,0,0.025253
2022/10/12 03:10:00.001,n,196,6.84,5.4,7.92,16,62.9,1019.52,0,0,0,0,0.026131
2022/10/12 03:11:00.002,n,191,6.48,3.6,9.36,16,62.9,1019.52,0,0,0,0,0.028725
2022/10/12 03:12:00.001,n,169,10.8,7.56,14.04,16,63,1019.52,0,0,0,0,0.026131
2022/10/12 03:13:00.002,n,168,7.56,2.52,12.24,16,63,1019.52,0,0,0,0,0.023499
2022/10/12 03:14:00.001,n,194,6.12,3.96,10.440002,16,63.1,1019.52,0,0,0,0,0.021744
2022/10/12 03:15:00.002,n,189,12.24,9.36,15.12,15.9,63.2,1019.52,0,0,0,0,0.021744
2022/10/12 03:16:00.005,n,211,6.12,4.32,7.92,15.9,63.4,1019.52,0,0,0,0,0.020027
2022/10/12 03:17:00.007,n,216,5.76,2.52,7.2,15.9,63.4,1019.52,0,0,0,0,0.022621
2022/10/12 03:18:00.011,n,177,10.440002,6.48,13.32,15.9,63.4,1019.52,0,0,0,0,0.022621
2022/10/12 03:19:00.002,n,175,11.52,7.92,15.12,15.9,63.5,1019.52,0,0,0,0,0.020866
2022/10/12 03:20:00.004,n,201,2.52,0.36,7.2,15.9,63.5,1019.52,0,0,0,0,0.027008
2022/10/12 03:21:00.002,n,201,5.4,4.32,7.56,15.9,63.6,1019.52,0,0,0,0,0.027847
2022/10/12 03:22:00.001,n,180,11.88,9,14.76,15.9,63.6,1019.52,0,0,0,0,0.028725
2022/10/12 03:23:00.001,n,208,9.72,7.2,11.88,15.9,63.7,1019.52,0,0,0,0,0.024376
2022/10/12 03:24:00.001,n,160,15.12,11.52,17.28,15.9,63.8,1019.52,0,0,0,0,0.025215
2022/10/12 03:25:00.003,n,152,5.76,3.24,9.72,15.9,63.9,1019.52,0,0,0,0,0.021782
2022/10/12 03:26:00.005,n,175,13.32,8.28,17.64,15.9,63.9,1019.52,0,0,0,0,0.021782
2022/10/12 03:27:00.008,n,174,5.04,4.32,7.92,15.9,64,1019.52,0,0,0,0,0.024376
2022/10/12 03:28:00.001,n,162,3.6,2.88,4.68,15.9,64.1,1019.62,0,0,0,0,0.022621
2022/10/12 03:29:00.002,n,188,6.12,4.32,7.56,15.9,64.199996,1019.62,0,0,0,0,0.022621
2022/10/12 03:30:00.004,n,174,9.72,5.04,12.96,15.9,64.199996,1019.62,0,0,0,0,0.020027
2022/10/12 03:31:00.007,n,169,5.4,2.88,9,15.8,64.300004,1019.62,0,0,0,0,0.020027
2022/10/12 03:32:00.009,n,161,3.96,3.24,7.56,15.8,64.300004,1019.62,0,0,0,0,0.017433
2022/10/12 03:33:00.002,n,144,2.88,2.52,3.6,15.8,64.4,1019.62,0,0,0,0,0.020866
2022/10/12 03:34:00.002,n,182,2.88,1.08,6.12,15.8,64.4,1019.62,0,0,0,0,0.016518
2022/10/12 03:35:00.002,n,177,9.72,7.92,12.24,15.8,64.4,1019.62,0,0,0,0,0.021782
2022/10/12 03:36:00.004,n,166,3.96,2.52,5.4,15.8,64.6,1019.62,0,0,0,0,0.01564
2022/10/12 03:37:00.001,n,271,5.76,5.4,6.84,15.8,64.4,1019.62,0,0,0,0,0.018272
2022/10/12 03:38:00.001,n,169,6.84,4.32,9.72,15.8,64.5,1019.62,0,0,0,0,0.017433
2022/10/12 03:39:00.001,n,172,9.36,7.56,13.32,15.8,64.5,1019.62,0,0,0,0,0.014801
2022/10/12 03:40:00.002,n,161,7.92,5.4,10.8,15.8,64.5,1019.62,0,0,0,0,0.014801
2022/10/12 03:41:00.002,n,176,1.8,0.72,5.04,15.8,64.6,1019.62,0,0,0,0,0.030479
2022/10/12 03:42:00.003,n,142,2.16,0.72,4.68,15.8,64.699996,1019.62,0,0,0,0,0.028725
2022/10/12 03:43:00.005,n,252,2.52,1.44,5.04,15.8,64.800004,1019.62,0,0,0,0,0.028725
2022/10/12 03:44:00.009,n,181,7.2,4.32,9,15.8,64.9,1019.62,0,0,0,0,0.02697
2022/10/12 03:45:00.011,n,162,5.04,1.8,6.48,15.8,64.800004,1019.62,0,0,0,0,0.028725
2022/10/12 03:46:00.001,n,81,2.16,0.36,5.4,15.8,64.800004,1019.62,0,0,0,0,0.02697
2022/10/12 03:47:00.002,n,197,2.88,0.36,5.04,15.8,65.1,1019.62,0,0,0,0,0.027847
2022/10/12 03:48:00.005,n,181,2.52,2.52,2.88,15.8,65,1019.62,0,0,0,0,0.029602
2022/10/12 03:49:00.001,n,210,3.6,2.16,5.04,15.8,64.9,1019.62,0,0,0,0,0.02697
2022/10/12 03:50:00.001,n,157,4.68,3.24,7.92,15.7,65.1,1019.72,0,0,0,0,0.028725
2022/10/12 03:51:00.001,n,146,1.8,1.08,2.52,15.7,65.1,1019.72,0,0,0,0,0.027847
2022/10/12 03:52:00.003,n,160,4.68,3.6,5.4,15.7,65.1,1019.72,0,0,0,0,0.026131
2022/10/12 03:53:00.007,n,170,14.04,10.440002,16.56,15.7,65.199996,1019.72,0,0,0,0,0.023499
2022/10/12 03:54:00.010,n,168,11.52,7.56,14.4,15.7,65.199996,1019.72,0,0,0,0,0.026131
2022/10/12 03:55:00.002,n,185,4.32,3.6,4.68,15.7,65.300004,1019.82,0,0,0,0,0.023499
2022/10/12 03:56:00.002,n,156,3.6,2.52,7.92,15.7,65.5,1019.82,0,0,0,0,0.024376
2022/10/12 03:57:00.003,n,155,8.64,6.84,11.88,15.7,65.4,1019.82,0,0,0,0,0.022621
2022/10/12 03:58:00.007,n,201,6.12,4.32,10.440002,15.7,65.4,1019.92,0,0,0,0,0.024376
2022/10/12 03:59:00.002,n,179,8.28,6.12,10.08,15.7,65.4,1019.82,0,0,0,0,0.026131
2022/10/12 04:00:00.002,n,156,3.6,2.88,6.12,15.7,65.4,1019.82,0,0,0,0,0.023499
2022/10/12 04:01:00.005,n,144,2.88,1.08,5.04,15.7,65.5,1019.92,0,0,0,0,0.025253
2022/10/12 04:02:00.009,n,160,5.04,3.24,8.64,15.7,65.6,1019.92,0,0,0,0,0.022621
2022/10/12 04:03:00.011,n,198,9.36,6.84,12.96,15.6,65.5,1019.92,0,0,0,0,0.023499
2022/10/12 04:04:00.001,n,189,3.96,1.44,8.28,15.6,65.5,1019.92,0,0,0,0,0.023499
2022/10/12 04:05:00.001,n,159,17.64,15.12,20.16,15.6,65.6,1019.92,0,0,0,0,0.026131
2022/10/12 04:06:00.002,n,207,6.84,5.76,10.440002,15.6,65.6,1020.02,0,0,0,0,0.020905
2022/10/12 04:07:00.004,n,168,15.84,11.88,19.08,15.6,65.6,1020.02,0,0,0,0,0.021744
2022/10/12 04:08:00.005,n,143,3.24,0.72,8.28,15.6,65.699996,1020.02,0,0,0,0,0.016556
2022/10/12 04:09:00.008,n,163,13.68,8.64,17.28,15.6,65.699996,1020.02,0,0,0,0,0.020027
2022/10/12 04:10:00.013,n,157,6.48,5.76,7.92,15.6,65.699996,1020.02,0,0,0,0,0.020905
2022/10/12 04:11:00.005,n,197,12.6,11.88,12.96,15.6,65.699996,1020.02,0,0,0,0,0.021744
2022/10/12 04:12:00.009,n,168,15.48,10.8,17.28,15.6,65.800004,1020.12,0,0,0,0,0.020027
2022/10/12 04:13:00.001,n,154,11.52,8.28,14.04,15.6,65.800004,1020.12,0,0,0,0,0.021744
2022/10/12 04:14:00.001,n,160,12.96,10.440002,17.28,15.6,65.800004,1020.12,0,0,0,0,0.021744
2022/10/12 04:15:00.004,n,168,19.8,16.56,21.96,15.6,66,1020.22,0,0,0,0,0.01915
2022/10/12 04:16:00.008,n,141,6.48,4.68,7.92,15.6,66.6,1020.22,0,0,0,0,0.020905
2022/10/12 04:17:00.001,n,144,8.64,7.2,9.72,15.6,67,1020.32,0,0,0,0,0.025253
2022/10/12 04:18:00.001,n,165,12.96,9.36,14.4,15.6,67.3,1020.32,0,0,0,0,0.033951
2022/10/12 04:19:00.003,n,139,11.16,9,13.32,15.5,67.7,1020.32,0,0,0,0,0.030479
2022/10/12 04:20:00.005,n,175,3.24,1.8,5.04,15.5,68.2,1020.42,0,0,0,0,0.033073
2022/10/12 04:21:00.008,n,147,13.68,11.52,15.12,15.5,68.2,1020.32,0,0,0,0,0.033073
2022/10/12 04:22:00.001,n,147,14.04,6.12,21.599998,15.4,69,1020.32,0,0,0,0,0.032196
2022/10/12 04:23:00.002,n,129,5.04,2.16,9,15.4,69.5,1020.22,0,0,0,0,0.030479
2022/10/12 04:24:00.002,n,160,4.68,2.88,7.56,15.3,70.5,1020.22,0,0,0,0,0.028725
2022/10/12 04:25:00.001,n,199,6.12,3.96,7.2,15.3,70.6,1020.22,0,0,0,0,0.031357
2022/10/12 04:26:00.003,n,151,8.64,4.68,13.32,15.2,70.9,1020.22,0,0,0,0,0.028725
2022/10/12 04:27:00.005,n,158,13.68,10.440002,15.12,15.2,71.2,1020.22,0,0,0,0,0.028725
2022/10/12 04:28:00.008,n,160,6.48,5.04,7.92,15.1,71.6,1020.22,0,0,0,0,0.026131
2022/10/12 04:29:00.010,n,130,5.4,3.6,6.48,15.1,71.8,1020.22,0,0,0,0,0.026131
2022/10/12 04:30:00.014,n,176,9,7.2,12.6,15.1,71.8,1020.22,0,0,0,0,0.024376
2022/10/12 04:31:00.001,n,242,1.08,0.36,2.16,15.1,72.3,1020.22,0,0,0,0,0.027847
2022/10/12 04:32:00.004,n,220,3.6,3.24,4.32,15.1,72.4,1020.22,0,0,0,0,0.022621
2022/10/12 04:33:00.002,n,301,4.68,3.96,6.48,15.1,72.7,1020.22,0,0,0,0,0.026131
2022/10/12 04:34:00.003,n,234,1.8,1.44,2.16,15.1,72.7,1020.22,0,0,0,0,0.022621
2022/10/12 04:35:00.006,n,287,2.52,1.44,4.32,15.1,73.4,1020.22,0,0,0,0,0.024376
2022/10/12 04:36:00.010,n,246,1.44,1.08,1.8,15.2,73.3,1020.22,0,0,0,0,0.023499
2022/10/12 04:37:00.001,n,113,2.16,1.08,4.32,15.2,73.1,1020.22,0,0,0,0,0.024376
2022/10/12 04:38:00.002,n,132,1.08,0.36,1.44,15.2,72.8,1020.22,0,0,0,0,0.024376
2022/10/12 04:39:00.002,n,133,2.88,1.8,4.32,15.2,72.6,1020.22,0,0,0,0,0.026131
2022/10/12 04:40:00.001,n,166,7.2,4.32,9.36,15.1,72.7,1020.12,0,0,0,0,0.024376
2022/10/12 04:41:00.001,n,45,0.72,0.36,1.44,15.1,73,1020.12,0,0,0,0,0.023499
2022/10/12 04:42:00.001,n,350,4.32,2.88,9,15.1,73.6,1020.12,0,0,0,0,0.024376
2022/10/12 04:43:00.001,n,320,1.8,0.72,2.88,15.2,73.6,1020.22,0,0,0,0,0.026131
2022/10/12 04:44:00.005,n,251,5.04,4.68,5.76,15.2,73.2,1020.22,0,0,0,0,0.025253
2022/10/12 04:45:00.009,n,121,1.08,0.72,1.8,15.2,73.3,1020.22,0,0,0,0,0.027008
2022/10/12 04:46:00.010,n,194,2.52,0.72,5.76,15.2,72.9,1020.22,0,0,0,0,0.027008
2022/10/12 04:47:00.013,n,220,3.6,0.36,5.04,15.2,72.8,1020.32,0,0,0,0,0.028725
2022/10/12 04:48:00.005,n,291,4.68,3.96,5.4,15.2,72.8,1020.22,0,0,0,0,0.032196
2022/10/12 04:49:00.001,n,169,3.6,1.44,5.4,15.2,72.5,1020.22,0,0,0,0,0.034828
2022/10/12 04:50:00.001,n,166,3.24,2.52,3.6,15.2,72.8,1020.32,0,0,0,0,0.034828